Wind_Speed
12 12 13 13 13 13 13 14 14 14 15 15 16 17 17 17 17 17 17 18 18 18 19 19 19 19 19 19 20 20 21 21 21 21 22 22 22 23
12 12 12 13 13 14 14 15 15 15 16 16 17 18 19 18 18 18 18 18 19 19 19 19 19 20 20 21 21 21 21 21 21 21 22 22 23 23
13 13 13 14 15 15 16 16 16 16 17 18 18 19 20 20 20 20 20 20 20 20 20 20 20 20 21 21 21 21 22 22 22 22 22 23 23 23
16 16 16 17 17 17 17 18 18 18 18 18 19 20 21 21 21 21 22 22 22 22 22 22 22 22 22 22 22 22 22 22 22 23 24 24 24 25
18 18 18 19 19 19 20 20 20 21 21 21 21 21 22 23 23 23 23 23 23 23 23 23 23 23 23 23 23 23 23 23 23 23 24 25 25 25
21 21 21 21 21 21 22 23 23 23 24 24 24 24 24 24 24 24 24 24 23 23 23 23 23 23 23 23 24 24 24 24 24 24 25 25 26 26
24 23 23 24 24 24 24 24 25 25 26 26 26 26 26 26 25 25 24 24 24 24 24 24 24 24 24 24 25 25 25 25 25 26 26 26 27 28
27 26 26 26 26 25 26 26 26 26 27 27 28 27 27 27 26 26 25 25 25 25 25 24 24 25 25 25 25 26 26 26 26 27 27 28 29 29
30 29 28 28 28 28 27 27 27 28 28 28 28 28 28 27 26 25 25 26 26 25 25 26 26 26 26 26 26 26 27 27 28 29 29 29 30 31
30 30 29 29 29 29 28 28 28 29 30 29 29 29 28 27 26 26 27 27 27 27 26 27 27 27 27 27 28 28 28 29 30 30 31 31 31 32
32 31 30 30 31 30 30 30 30 30 30 30 30 30 29 28 27 27 27 28 27 27 28 29 29 29 29 29 29 29 30 30 31 31 32 33 33 33
32 32 32 32 32 32 32 31 31 31 31 31 31 30 30 29 29 28 29 29 29 29 29 29 29 29 29 30 30 31 31 31 32 33 33 33 34 35
34 33 33 33 34 33 33 33 33 33 32 32 32 31 31 31 30 30 30 30 30 30 30 30 31 31 31 31 31 31 32 32 32 33 33 33 34 34
35 35 36 35 36 35 35 35 35 35 34 33 33 33 33 33 32 32 32 33 32 32 32 32 32 33 33 33 33 33 33 33 33 34 34 35 35 35
36 36 37 37 37 37 36 36 35 35 35 34 34 34 34 34 34 33 33 33 33 33 32 33 33 33 34 33 33 33 33 33 34 34 34 35 35 35
36 36 37 37 36 36 36 36 36 36 35 35 35 34 34 34 34 34 34 34 33 33 33 34 34 34 34 34 33 33 33 34 34 34 35 35 35 35
37 37 37 38 37 37 36 37 37 37 36 36 35 35 35 35 35 35 35 34 34 34 34 35 35 35 34 34 34 34 34 34 35 35 35 35 36 36
38 38 39 38 37 37 36 36 36 36 36 36 36 36 35 35 36 36 36 36 36 35 36 36 36 36 35 34 34 35 35 35 35 35 35 36 36 36
39 38 38 37 37 37 36 35 36 36 36 36 36 36 36 37 37 36 36 36 36 35 36 37 37 36 36 36 36 36 36 36 36 35 36 36 36 37
38 37 36 36 36 37 36 36 36 37 37 37 37 37 37 37 37 37 36 36 36 36 37 37 36 36 37 37 37 36 36 36 36 36 36 36 37 37
36 37 37 37 37 37 37 37 36 36 37 37 36 37 37 37 36 36 36 36 37 37 37 37 36 36 37 37 36 36 36 37 37 37 36 36 37 36
37 36 36 36 36 37 37 37 37 37 36 36 36 36 36 36 36 36 36 36 37 37 37 37 37 37 37 37 36 36 36 36 36 36 36 37 37 36
35 35 35 36 36 35 36 37 37 36 35 34 34 34 34 35 34 35 35 36 37 38 37 37 37 37 37 37 37 37 36 36 36 36 36 37 36 35
Wind_Direction
293 294 290 286 287 291 293 289 286 288 288 286 286 286 286 286 288 289 287 287 287 286 286 285 284 286 286 285 284 283 283 282 280 279 277 278 278 279
292 293 291 293 291 290 290 290 288 288 289 288 287 285 284 285 287 288 288 289 288 288 288 288 286 285 284 284 284 284 283 284 282 281 280 279 279 279
293 289 288 290 291 292 292 292 291 291 291 289 287 288 287 287 287 288 287 287 287 287 287 287 286 285 283 282 282 282 283 283 283 283 283 282 282 281
290 288 287 289 290 292 293 292 293 294 294 292 290 289 288 288 287 287 287 287 286 286 287 286 285 284 283 282 282 282 283 284 282 282 282 282 282 281
287 287 287 288 289 290 291 291 292 293 294 293 292 290 289 289 287 286 286 287 286 286 286 287 286 285 284 283 283 283 283 283 284 284 283 282 283 283
288 285 285 286 287 288 289 290 291 291 291 291 292 290 290 290 287 286 285 286 286 286 287 286 287 286 284 283 282 282 282 283 284 285 286 285 285 285
285 285 285 287 288 288 288 289 290 290 290 289 289 291 291 291 289 286 284 284 285 287 288 286 286 286 284 284 283 283 282 283 284 284 284 285 285 285
284 284 285 287 288 287 287 287 288 290 290 289 290 290 290 290 288 285 283 282 283 285 286 287 286 285 284 284 283 283 283 284 284 284 284 284 285 285
284 284 284 284 284 285 285 286 286 287 289 290 290 289 290 288 287 285 284 283 283 283 284 285 285 286 286 286 285 284 283 283 284 284 284 285 285 286
282 282 282 282 283 285 284 285 286 286 288 288 287 288 287 285 284 284 284 283 283 282 282 283 284 284 284 286 286 285 283 283 283 283 283 284 284 285
281 280 281 280 282 284 285 286 287 287 287 288 288 286 284 283 283 282 281 282 282 282 283 283 284 285 285 285 285 285 284 284 283 284 283 283 284 284
282 280 280 280 280 280 282 283 285 286 287 287 287 286 284 281 281 281 281 282 283 283 284 285 285 286 286 286 285 284 284 284 284 284 285 285 285 285
279 279 280 280 280 279 280 281 282 284 286 287 285 284 284 281 281 281 282 283 285 285 285 285 286 286 286 286 286 286 286 286 286 286 286 286 287 288
277 278 279 278 278 275 277 280 280 281 284 285 285 284 282 281 280 280 281 283 284 285 286 286 286 285 286 286 286 286 287 287 287 288 287 287 287 288
276 277 277 276 275 274 276 277 279 280 281 282 283 283 282 281 280 280 280 282 284 286 286 286 287 287 288 288 287 287 288 288 288 288 288 289 290 290
276 276 275 273 272 273 273 275 277 278 279 280 280 281 281 280 280 280 281 282 284 286 286 287 288 288 288 287 288 289 289 289 288 288 290 290 291 290
275 273 273 272 271 271 271 272 275 277 277 278 278 279 280 279 279 280 281 282 283 285 286 287 288 288 288 289 289 289 289 289 288 288 289 289 289 289
275 273 273 272 272 271 270 271 272 274 275 276 277 278 278 279 279 279 280 282 284 284 285 287 287 288 288 289 289 289 289 289 289 288 287 288 288 289
275 273 273 272 272 273 273 272 272 273 274 274 275 276 277 277 277 278 278 280 282 283 284 285 285 286 288 290 290 290 290 289 289 289 289 289 289 289
275 274 274 272 271 272 273 273 273 274 275 274 274 275 275 276 276 277 277 279 281 282 283 283 284 286 287 288 290 290 290 290 289 289 289 290 292 292
276 276 274 272 272 272 274 275 273 274 274 273 274 274 274 275 275 275 276 277 280 281 282 283 284 285 286 288 289 290 290 289 289 289 290 291 292 292
275 275 274 272 272 272 274 275 275 275 273 273 273 272 273 273 274 275 276 277 279 281 282 283 283 285 286 287 288 290 290 290 290 290 290 292 293 292
273 273 273 272 272 273 274 274 274 274 273 272 272 273 273 274 275 276 277 279 280 280 280 281 283 284 285 286 288 289 289 290 291 292 292 293 293 292
Height
5867 5866 5865 5864 5863 5862 5862 5861 5860 5859 5858 5857 5856 5855 5854 5854 5852 5851 5850 5850 5849 5848 5846 5845 5845 5844 5843 5842 5841 5840 5840 5839 5838 5838 5837 5837 5836 5836
5864 5862 5861 5860 5860 5859 5858 5857 5856 5855 5854 5853 5852 5851 5850 5849 5848 5847 5846 5845 5844 5843 5841 5840 5839 5838 5837 5837 5836 5835 5834 5833 5832 5832 5831 5831 5830 5829
5860 5859 5858 5857 5856 5855 5854 5853 5852 5851 5850 5849 5848 5846 5845 5844 5843 5842 5841 5839 5838 5837 5836 5835 5834 5833 5832 5831 5830 5829 5828 5827 5827 5826 5825 5824 5823 5823
5856 5855 5854 5853 5852 5851 5850 5849 5848 5846 5845 5844 5842 5841 5840 5839 5837 5836 5835 5834 5833 5832 5831 5830 5829 5827 5826 5825 5824 5823 5822 5821 5820 5819 5819 5818 5817 5816
5851 5850 5849 5848 5847 5846 5845 5844 5843 5841 5840 5839 5837 5835 5834 5832 5831 5830 5829 5828 5826 5825 5824 5823 5822 5821 5820 5819 5818 5817 5816 5815 5814 5813 5812 5811 5810 5809
5846 5845 5844 5842 5841 5840 5839 5838 5837 5835 5834 5833 5831 5829 5828 5826 5824 5823 5822 5821 5820 5819 5817 5816 5815 5814 5813 5812 5811 5810 5809 5808 5807 5806 5805 5803 5802 5801
5840 5839 5837 5836 5835 5834 5833 5831 5830 5829 5828 5826 5825 5823 5821 5819 5818 5816 5815 5814 5812 5811 5810 5809 5808 5807 5806 5805 5804 5803 5802 5801 5800 5798 5797 5796 5795 5793
5833 5832 5831 5830 5828 5827 5826 5825 5824 5822 5821 5819 5817 5816 5814 5812 5810 5809 5808 5807 5806 5805 5803 5802 5801 5800 5799 5797 5796 5795 5794 5793 5792 5790 5789 5788 5786 5785
5826 5825 5823 5822 5821 5820 5818 5817 5816 5814 5813 5812 5810 5808 5806 5804 5803 5801 5801 5799 5798 5797 5796 5795 5793 5792 5791 5789 5788 5787 5786 5785 5783 5782 5780 5779 5778 5776
5818 5816 5815 5814 5813 5812 5811 5809 5808 5807 5805 5803 5801 5800 5799 5797 5795 5794 5793 5792 5790 5789 5788 5787 5785 5784 5783 5781 5780 5778 5777 5776 5775 5773 5772 5770 5769 5767
5808 5808 5806 5806 5805 5804 5803 5801 5800 5799 5797 5795 5793 5792 5791 5789 5787 5786 5785 5784 5782 5781 5780 5779 5777 5776 5774 5773 5771 5770 5768 5767 5765 5764 5762 5761 5759 5757
5799 5798 5797 5796 5795 5794 5793 5792 5791 5790 5788 5787 5785 5784 5782 5781 5779 5778 5777 5776 5774 5773 5771 5770 5769 5767 5766 5764 5762 5761 5759 5758 5756 5755 5753 5751 5749 5747
5789 5788 5787 5786 5785 5784 5783 5782 5782 5781 5779 5778 5776 5775 5773 5772 5771 5769 5768 5767 5765 5764 5763 5761 5760 5759 5757 5755 5753 5752 5750 5748 5747 5745 5743 5741 5739 5737
5778 5777 5776 5775 5774 5773 5773 5772 5771 5771 5770 5768 5767 5766 5764 5763 5761 5760 5759 5757 5756 5755 5754 5752 5751 5749 5748 5746 5744 5742 5740 5738 5737 5735 5733 5731 5729 5727
5766 5766 5765 5763 5762 5762 5762 5761 5761 5760 5759 5758 5757 5756 5755 5753 5752 5750 5749 5748 5747 5746 5744 5743 5741 5740 5738 5737 5735 5733 5731 5729 5727 5725 5723 5721 5719 5716
5754 5754 5753 5751 5751 5751 5751 5750 5750 5750 5749 5748 5747 5746 5744 5743 5742 5741 5740 5738 5737 5736 5735 5733 5732 5730 5728 5727 5725 5723 5721 5719 5717 5715 5713 5711 5708 5706
5742 5742 5741 5740 5740 5739 5739 5739 5739 5739 5738 5737 5736 5735 5734 5733 5732 5731 5730 5728 5727 5726 5725 5723 5721 5720 5719 5717 5715 5713 5711 5709 5707 5705 5703 5700 5698 5695
5730 5730 5729 5728 5728 5728 5728 5728 5727 5727 5727 5726 5726 5724 5723 5722 5722 5721 5719 5718 5717 5716 5714 5713 5711 5710 5708 5707 5705 5703 5701 5698 5696 5694 5692 5690 5687 5685
5718 5718 5718 5717 5717 5716 5716 5716 5716 5716 5715 5715 5715 5714 5713 5712 5711 5710 5709 5708 5707 5705 5704 5702 5701 5700 5698 5697 5694 5692 5690 5688 5685 5683 5681 5678 5676 5674
5705 5705 5706 5706 5705 5705 5704 5704 5704 5704 5704 5703 5703 5702 5702 5701 5700 5699 5698 5697 5696 5694 5693 5692 5691 5689 5688 5686 5684 5682 5679 5677 5674 5672 5670 5667 5665 5662
5694 5694 5694 5694 5694 5694 5693 5693 5693 5692 5692 5692 5691 5691 5690 5689 5688 5688 5687 5686 5685 5684 5682 5681 5680 5678 5676 5674 5673 5671 5668 5666 5663 5661 5659 5657 5654 5652
5683 5683 5682 5682 5682 5682 5682 5682 5682 5681 5681 5680 5680 5679 5678 5677 5677 5677 5676 5675 5674 5673 5672 5670 5668 5666 5665 5663 5661 5659 5657 5655 5652 5650 5648 5646 5643 5640
5671 5671 5671 5671 5671 5671 5671 5670 5670 5669 5669 5669 5668 5667 5667 5666 5666 5666 5665 5664 5663 5661 5660 5659 5657 5655 5653 5652 5650 5648 5646 5644 5641 5639 5636 5634 5632 5629